SAS1444 EKCH-ESGG

Flight info

Callsign SAS1444
Flight time 0h 26m
Altitude 20000
Route VEDAR L997 RISMA
Aircraft A20N/M-SDE2E3FGHIRWXY/LB1

Departure

Time 2026-04-23 21:53
Airport Copenhagen Kastrup Airport (EKCH)

Arrival

Time 2026-04-23 22:20
Airport Göteborg Landvetter Airport (ESGG)
Time Latitude Longitude Altitude Speed Heading
2026-04-23 21:40 55.62755 12.64466 18 ft 0 kts 100°
2026-04-23 21:44 55.62755 12.64463 18 ft 1 kts 101°
2026-04-23 21:44 55.62758 12.64437 19 ft 2 kts 100°
2026-04-23 21:44 55.62763 12.64412 19 ft 2 kts 133°
2026-04-23 21:45 55.62775 12.64397 18 ft 2 kts 167°
2026-04-23 21:45 55.62785 12.64395 18 ft 0 kts 189°
2026-04-23 21:45 55.62792 12.64398 18 ft 0 kts 192°
2026-04-23 21:47 55.62791 12.64398 18 ft 0 kts 192°
2026-04-23 21:48 55.62756 12.64382 18 ft 10 kts 199°
2026-04-23 21:48 55.62656 12.64305 18 ft 18 kts 204°
2026-04-23 21:48 55.62544 12.64212 16 ft 14 kts 180°
2026-04-23 21:48 55.62469 12.64342 15 ft 16 kts 126°
2026-04-23 21:49 55.62419 12.64443 16 ft 7 kts 170°
2026-04-23 21:49 55.62359 12.64436 15 ft 10 kts 194°
2026-04-23 21:49 55.62252 12.64399 15 ft 20 kts 178°
2026-04-23 21:49 55.62083 12.64448 15 ft 26 kts 171°
2026-04-23 21:50 55.61892 12.64509 15 ft 28 kts 168°
2026-04-23 21:50 55.61711 12.64571 15 ft 22 kts 177°
2026-04-23 21:50 55.61578 12.64456 15 ft 21 kts 213°
2026-04-23 21:50 55.61453 12.64312 16 ft 21 kts 213°
2026-04-23 21:51 55.61332 12.64175 15 ft 21 kts 213°
2026-04-23 21:51 55.61212 12.64038 16 ft 20 kts 213°
2026-04-23 21:51 55.61093 12.63902 17 ft 19 kts 213°
2026-04-23 21:51 55.60976 12.63767 16 ft 20 kts 214°
2026-04-23 21:52 55.60858 12.63635 15 ft 20 kts 213°
2026-04-23 21:52 55.60741 12.63671 15 ft 18 kts 132°
2026-04-23 21:52 55.60713 12.63880 15 ft 17 kts 77°
2026-04-23 21:52 55.60767 12.64015 15 ft 13 kts 43°
2026-04-23 21:53 55.60959 12.64309 15 ft 72 kts 41°
2026-04-23 21:53 55.61518 12.65174 16 ft 138 kts 42°
2026-04-23 21:53 55.62317 12.66443 392 ft 159 kts 41°
2026-04-23 21:53 55.63138 12.67757 1054 ft 163 kts 39°
2026-04-23 21:54 55.63962 12.69066 1839 ft 161 kts 38°
2026-04-23 21:54 55.64821 12.70410 2373 ft 173 kts 38°
2026-04-23 21:54 55.65897 12.71456 2824 ft 186 kts 10°
2026-04-23 21:54 55.67224 12.71256 3263 ft 204 kts 342°
2026-04-23 21:55 55.68629 12.70467 3759 ft 224 kts 352°
2026-04-23 21:55 55.70237 12.70167 4337 ft 241 kts 354°
2026-04-23 21:55 55.71954 12.69888 5074 ft 253 kts 355°
2026-04-23 21:55 55.73706 12.69648 5993 ft 256 kts 356°
2026-04-23 21:56 55.75479 12.69436 6929 ft 259 kts 356°
2026-04-23 21:56 55.77254 12.69241 7873 ft 261 kts 356°
2026-04-23 21:56 55.79050 12.69051 8808 ft 263 kts 356°
2026-04-23 21:56 55.80859 12.68612 9721 ft 264 kts 341°
2026-04-23 21:57 55.82401 12.66956 10590 ft 268 kts 319°
2026-04-23 21:57 55.83508 12.64155 11144 ft 288 kts 297°
2026-04-23 21:57 55.84255 12.60787 11599 ft 306 kts 295°
2026-04-23 21:57 55.85054 12.57166 11982 ft 324 kts 295°
2026-04-23 21:58 55.85908 12.53321 12322 ft 342 kts 295°
2026-04-23 21:58 55.86797 12.49309 12633 ft 360 kts 295°
2026-04-23 21:58 55.87742 12.45040 12925 ft 376 kts 295°
2026-04-23 21:58 55.88711 12.40675 13429 ft 384 kts 296°
2026-04-23 21:59 55.90056 12.36621 14059 ft 383 kts 313°
2026-04-23 21:59 55.92069 12.33526 14743 ft 382 kts 329°
2026-04-23 21:59 55.94516 12.31647 15380 ft 385 kts 343°
2026-04-23 22:00 55.99406 12.29376 16501 ft 392 kts 345°
2026-04-23 22:00 56.02060 12.28157 17083 ft 396 kts 345°
2026-04-23 22:00 56.03820 12.27345 17455 ft 398 kts 345°
2026-04-23 22:00 56.07375 12.25694 18181 ft 403 kts 345°
2026-04-23 22:01 56.09972 12.24560 18686 ft 407 kts 347°
2026-04-23 22:01 56.12681 12.23629 19232 ft 409 kts 350°
2026-04-23 22:01 56.15268 12.22885 19714 ft 412 kts 351°
2026-04-23 22:01 56.18105 12.22109 20017 ft 414 kts 351°
2026-04-23 22:02 56.20990 12.21326 20069 ft 413 kts 351°
2026-04-23 22:02 56.23809 12.20557 20075 ft 413 kts 351°
2026-04-23 22:02 56.26671 12.19774 20071 ft 413 kts 351°
2026-04-23 22:02 56.29497 12.18998 20075 ft 414 kts 351°
2026-04-23 22:03 56.32317 12.18222 20080 ft 414 kts 350°
2026-04-23 22:03 56.35157 12.17436 20079 ft 414 kts 350°
2026-04-23 22:03 56.38011 12.16645 20077 ft 414 kts 350°
2026-04-23 22:03 56.40861 12.15853 20077 ft 414 kts 351°
2026-04-23 22:04 56.43693 12.15065 20082 ft 413 kts 350°
2026-04-23 22:04 56.46529 12.14278 20079 ft 413 kts 350°
2026-04-23 22:04 56.49367 12.13486 20078 ft 413 kts 350°
2026-04-23 22:04 56.52217 12.12689 20078 ft 414 kts 350°
2026-04-23 22:05 56.55025 12.11905 20080 ft 414 kts 350°
2026-04-23 22:05 56.57867 12.11111 20080 ft 413 kts 351°
2026-04-23 22:05 56.60692 12.10320 20077 ft 414 kts 350°
2026-04-23 22:05 56.63570 12.09513 20078 ft 415 kts 351°
2026-04-23 22:06 56.66380 12.08723 20076 ft 415 kts 350°
2026-04-23 22:06 56.69250 12.07917 20076 ft 415 kts 350°
2026-04-23 22:06 56.72012 12.07140 20079 ft 415 kts 350°
2026-04-23 22:06 56.74865 12.06335 20096 ft 414 kts 350°
2026-04-23 22:07 56.77726 12.05527 20094 ft 414 kts 350°
2026-04-23 22:07 56.80534 12.04731 20092 ft 413 kts 350°
2026-04-23 22:07 56.83403 12.03904 20085 ft 414 kts 350°
2026-04-23 22:07 56.86211 12.03107 20080 ft 415 kts 350°
2026-04-23 22:08 56.89061 12.02286 20076 ft 415 kts 350°
2026-04-23 22:08 56.91906 12.01475 20042 ft 412 kts 350°
2026-04-23 22:08 56.94700 12.00847 19584 ft 407 kts 357°
2026-04-23 22:08 56.97507 12.01153 18769 ft 397 kts
2026-04-23 22:09 57.00188 12.01792 17816 ft 388 kts
2026-04-23 22:09 57.02816 12.02441 16584 ft 380 kts
2026-04-23 22:09 57.05381 12.03033 15296 ft 374 kts
2026-04-23 22:09 57.07899 12.03581 14010 ft 367 kts
2026-04-23 22:10 57.10393 12.04100 12760 ft 360 kts
2026-04-23 22:10 57.12818 12.04586 11547 ft 352 kts
2026-04-23 22:10 57.15049 12.05027 10419 ft 345 kts
2026-04-23 22:10 57.17368 12.05481 9232 ft 337 kts
2026-04-23 22:11 57.19641 12.05918 7983 ft 331 kts
2026-04-23 22:11 57.21885 12.06348 6712 ft 326 kts
2026-04-23 22:11 57.24106 12.06777 5579 ft 317 kts
2026-04-23 22:11 57.26233 12.07196 4860 ft 298 kts
2026-04-23 22:12 57.28215 12.07584 4282 ft 279 kts
2026-04-23 22:12 57.30062 12.07946 3814 ft 261 kts
2026-04-23 22:12 57.31811 12.08289 3427 ft 248 kts
2026-04-23 22:12 57.33511 12.08623 3102 ft 242 kts
2026-04-23 22:13 57.35176 12.08952 3024 ft 240 kts
2026-04-23 22:13 57.36766 12.09265 3008 ft 225 kts
2026-04-23 22:13 57.38285 12.09563 3003 ft 210 kts
2026-04-23 22:13 57.39689 12.09839 3006 ft 201 kts
2026-04-23 22:14 57.41068 12.10110 3006 ft 198 kts
2026-04-23 22:14 57.42412 12.10372 3002 ft 191 kts
2026-04-23 22:14 57.43734 12.10631 3007 ft 192 kts
2026-04-23 22:14 57.45050 12.10889 3011 ft 192 kts
2026-04-23 22:15 57.46379 12.11152 3012 ft 192 kts
2026-04-23 22:15 57.47680 12.11611 3009 ft 191 kts 15°
2026-04-23 22:15 57.48931 12.12407 3011 ft 191 kts 21°
2026-04-23 22:15 57.50164 12.13364 3011 ft 191 kts 23°
2026-04-23 22:16 57.51366 12.14388 3011 ft 189 kts 24°
2026-04-23 22:16 57.52506 12.15408 3076 ft 171 kts 25°
2026-04-23 22:16 57.53579 12.16388 2971 ft 173 kts 25°
2026-04-23 22:16 57.54645 12.17364 2747 ft 170 kts 25°
2026-04-23 22:17 57.55702 12.18333 2537 ft 171 kts 24°
2026-04-23 22:17 57.56764 12.19305 2310 ft 167 kts 24°
2026-04-23 22:17 57.57791 12.20246 2085 ft 161 kts 24°
2026-04-23 22:17 57.58765 12.21136 1864 ft 152 kts 24°
2026-04-23 22:18 57.59679 12.21970 1681 ft 139 kts 24°
2026-04-23 22:18 57.60533 12.22749 1490 ft 135 kts 23°
2026-04-23 22:18 57.61366 12.23506 1304 ft 134 kts 23°
2026-04-23 22:18 57.62209 12.24273 1135 ft 134 kts 24°
2026-04-23 22:19 57.63045 12.25009 925 ft 134 kts 22°
2026-04-23 22:19 57.63874 12.25790 751 ft 133 kts 25°
2026-04-23 22:19 57.64709 12.26552 579 ft 132 kts 24°
2026-04-23 22:19 57.65517 12.27284 501 ft 120 kts 24°
2026-04-23 22:20 57.66157 12.27865 508 ft 81 kts 26°
2026-04-23 22:20 57.66511 12.28190 511 ft 28 kts 26°
2026-04-23 22:20 57.66665 12.28435 511 ft 28 kts 54°
2026-04-23 22:20 57.66762 12.28701 509 ft 17 kts 57°
2026-04-23 22:21 57.66824 12.28844 509 ft 14 kts 65°
2026-04-23 22:21 57.66810 12.28972 518 ft 6 kts 119°
2026-04-23 22:21 57.66782 12.29064 521 ft 13 kts 119°
2026-04-23 22:21 57.66745 12.29207 521 ft 9 kts 115°
2026-04-23 22:22 57.66728 12.29275 521 ft 0 kts 114°